Location: B?jaj?g
(11.7167°N, 92.6667°E)
Time: 22:50:53
(UTC+00:00)

Sakura Rocket - Pass Details

Date: 18 September 2020
Orbit: 476 x 1743 km, 28.7° (Epoch: 30 October)

Event Time Altitude Azimuth Distance (km) Brightness Sun altitude
Exits shadow 22:19:30 26° 334° (NNW) 1,095 4.1 -20.2°
Maximum altitude 22:21:10 38° 23° (NNE) 791 3.8 -19.7°
Drops below altitude 10° 22:24:36 10° 93° (E) 1,645 6.5 -18.9°
Sets 22:26:47 0° 102° (ESE) 2,504 7.6 -18.4°
